CZ-6A DEB

Satellite information

Favourite Embed

Satellite Type and Status

DEBRISIN ORBIT

Key statistics

Satellite CZ-6A DEB at a glance.

Uptime

335

Days in orbit

Revolutions

≈ 14.6

Per day

Orbit

LEO

Low Earth Orbit

Inclination

89.0

Latest

Satellite identification and parameters

Extended collection of information and parameters for CZ-6A DEB.

Object identification

Identified? True

Debris? True

Object name: CZ-6A DEB

International designator: 2024-140ADE

Object number (NORAD): 61838

Object ID (CCSDS): 61838

Country: PEOPLES REPUBLIC OF CHINA (PRC)

Current information (Y/N): Y

RCS size: SMALL

Orbital parameters

Period: 98.684 minutes

Inclination: 88.9558 deg

SMA: 7073.902 km

Apoapsis: 755.49 km

Periapsis: 636.044 km

RAAN: 309.7558 deg

Eccentricy: 0.0084427

Argument of periapsis: 13.4051 deg

Mean anomaly: 346.9375 deg

Mean motion: 14.59197996 rev/day

Mean motion (dot): 0.00005993 rev/day2

B* drag term: 0.0012061 1/REarth

Two-line elements (TLE)

Creation date: July 5, 2025, 10:36 p.m.

Reference frame: TEME

Reference center: EARTH

Epoch: July 5, 2025, 6:58 p.m. UTC

TLE line 0: 0 CZ-6A DEB

TLE line 1: 1 61838U 24140ADE 25186.79033312 .00005993 00000-0 12061-2 0 9995

TLE line 2: 2 61838 88.9558 309.7558 0084427 13.4051 346.9375 14.59197996 42213

Live tracking on map

Real-time ground track for satellite CZ-6A DEB.

In-orbit conjunctions

A list of the most updated potential collisions computed for object CZ-6A DEB.

Target Orbit TCA Probability of collision Miss distance Type
SPOT 4 SSO 2025-02-09 06:15:35 0.0001552856 803.0 (m) PAYLOAD
COSMOS 1275 DEB LEO 2025-02-01 15:23:34 0.0001181979 377.0 (m) DEBRIS
IRIDIUM 36 LEO 2024-11-29 11:35:14 0.0001509033 157.0 (m) PAYLOAD

Associated space launch

18 Low Earth Orbit communication satellites with Ku, Q and V band payloads for the G60 constellation operated by Shanghai Spacecom Satellite Technology (SSST) with funding backed by the Shanghai local government. Initial constellation will consist of 1296 satellites by 2027 with long term plans to expand it to 12000 satellites.

CZ-6A DEB was lifted into orbit during the mission ‘Long March 6A | G60 Polar Group 01’, on board a Long March 6A space rocket.

The launch took place on Aug. 6, 2024, 6:42 a.m. from Launch Complex 9A.

For more information about the launch, click the button.

Launch to space Long March 6A | G60 Polar Group 01
Long March 6A | G60 Polar Group 01

Agency: N/A

Status: Launch Successful

Launch date: Aug. 6, 2024, 6:42 a.m. UTC

Rocket: Long March 6A

Launch pad: Launch Complex 9A

Location: Taiyuan Satellite Launch Center, People's Republic of China

...

Latest news about this satellite

News about space launch
Brightness of first Chinese broadband constellation satellites alarms astronomers

The first satellites of a Chinese broadband constellation are significantly brighter than those of Western systems, posing a new challenge for astronomers.

News about space launch
Chinese rocket stage breaks up into cloud of more than 700 pieces of space debris

HELSINKI — A Chinese Long March 6A rocket’s upper stage has fragmented into a cloud of over 700 pieces of space debris, adding to concerns about long-term orbital safety. China […]

News about space launch
China's Thousand Sails Megaconstellation Kicks Off with Dangerous Debris Field

China's Thousand Sails Megaconstellation Kicks Off with Dangerous Debris Field


Newsletter sign-up

Weekly statistics, charts and insights to help you stay on top of the space industry.